Location: Habighorst
(52.7089°N, 10.2278°E)
Time: 22:49:10
(UTC+00:00)

Meteor 1-21 - Visible Passes

Search period start: 18 April 2026 00:00
Search period end: 28 April 2026 00:00
Orbit: 843 x 887 km, 81.2° (Epoch: 18 April)

Date Brightness Start Highest point End Pass type
(mag) Time Alt. Az. Time Alt. Az. Time Alt. Az.
19 Apr 7.2 03:33:51 10° ESE 03:37:13 16° E 03:40:35 10° NE visible
20 Apr 7.2 03:26:01 10° ESE 03:29:21 16° E 03:32:42 10° NE visible
21 Apr 7.2 03:18:10 10° ESE 03:21:30 16° E 03:24:50 10° NE visible
22 Apr 7.1 03:10:19 10° ESE 03:13:38 16° E 03:16:57 10° NE visible
23 Apr 7.1 03:02:27 10° ESE 03:05:47 16° E 03:09:05 10° NE visible
24 Apr 7.1 02:54:37 10° ESE 02:57:55 16° E 03:01:12 10° NE visible
25 Apr 7.0 02:46:45 10° ESE 02:50:03 16° E 02:53:20 10° NE visible
26 Apr 7.0 02:38:54 10° ESE 02:42:12 16° E 02:45:28 10° NE visible
27 Apr 7.0 02:31:04 10° ESE 02:34:20 16° E 02:37:35 10° NE visible
